GFSNGP_700_spd_000.txt.gz
Wind_Speed
5 8 9 11 14 13 15 16 17 20 17 16 11 9 9 12 19 21 36 37 32 41 44 47 45 37 35 36 33 35 35 34 48 50 48 52 46 44 47 45 40 38 34 32
9 3 7 13 16 16 16 17 14 15 17 12 10 13 20 28 29 33 37 35 38 44 44 38 35 32 35 35 32 39 41 48 49 43 37 39 37 41 43 38 37 38 34 35
3 12 14 3 4 2 5 7 11 13 14 16 15 19 22 34 36 37 34 35 43 42 27 28 33 36 34 35 38 35 41 45 48 38 40 36 45 47 39 33 38 37 34 35
6 7 3 1 11 14 13 11 9 10 11 7 19 28 30 34 33 28 37 40 36 25 28 27 39 32 38 46 44 34 34 39 45 48 46 38 43 37 32 34 39 34 35 38
2 4 14 7 6 4 7 13 12 13 19 23 26 28 30 27 31 36 39 32 25 26 29 38 32 37 44 46 37 32 33 40 41 45 25 40 35 34 32 35 35 36 38 38
5 2 4 4 6 12 18 17 15 19 21 27 35 35 27 31 33 38 35 27 24 29 32 32 36 41 46 41 39 36 34 41 42 34 29 39 34 32 29 34 34 38 40 32
7 7 10 10 11 14 9 10 18 25 32 32 34 32 30 33 30 27 21 23 28 31 33 38 41 46 42 43 37 37 42 39 37 26 33 39 30 27 33 32 37 36 32 36
5 6 8 9 9 14 16 21 33 29 29 34 30 32 28 25 29 21 25 28 29 32 36 41 44 40 40 45 45 41 37 35 29 30 34 32 25 31 33 34 33 31 33 37
10 10 10 22 23 29 32 29 33 30 30 29 29 24 24 27 21 25 29 30 33 35 41 41 35 38 42 47 47 42 36 33 27 28 30 27 29 30 29 31 30 29 32 37
19 25 21 23 26 30 30 29 30 32 26 22 20 26 23 22 25 30 33 38 35 42 39 37 41 42 44 45 41 38 36 29 27 26 26 25 25 26 29 28 27 28 32 36
23 25 23 28 34 31 33 28 31 23 20 19 27 21 21 27 32 35 36 36 42 40 39 44 45 42 44 42 39 36 31 28 26 23 21 22 22 25 26 27 26 28 30 33
26 23 27 30 32 33 31 34 29 20 24 24 18 25 29 32 38 40 40 42 41 41 44 44 46 46 43 40 35 33 30 27 21 20 22 20 21 22 25 26 25 26 27 28
29 33 35 30 29 31 27 22 21 25 25 18 27 27 37 39 39 40 41 41 41 42 43 43 44 41 38 37 34 30 26 21 19 21 20 21 21 23 25 25 25 25 26 27
31 32 30 28 26 19 18 21 25 20 24 23 32 37 38 39 41 41 41 42 43 42 42 42 40 37 35 34 32 29 23 20 22 20 20 21 21 22 24 24 23 25 27 26
32 25 25 23 17 20 22 22 22 22 28 34 37 37 39 40 41 41 41 41 41 42 42 41 38 35 31 30 26 24 23 18 21 21 21 21 21 22 22 22 22 23 25 27
26 25 19 20 18 18 21 23 26 31 34 36 37 38 39 41 40 40 40 39 41 42 39 38 34 31 28 26 22 21 23 20 21 22 21 21 20 20 20 21 21 23 24 24
25 21 20 20 18 21 24 28 31 33 35 36 38 39 40 38 38 37 37 37 41 40 39 34 29 26 26 21 20 19 21 21 21 21 20 19 19 19 20 20 21 23 24 24
22 22 19 18 22 26 29 31 32 35 35 37 39 40 38 36 35 36 35 38 38 38 32 27 26 25 23 20 19 20 21 21 21 20 18 18 17 18 18 19 21 22 23 24
19 17 19 23 27 29 31 31 33 35 36 38 40 38 35 32 33 34 35 37 38 37 29 26 25 23 22 20 19 20 21 21 20 19 18 16 15 16 17 19 20 22 22 22
15 20 24 26 29 30 31 32 35 37 37 39 38 35 33 31 32 34 35 35 36 35 29 26 22 23 21 19 18 20 22 21 19 18 17 15 14 14 16 18 20 21 22 22
21 23 26 28 30 30 31 34 36 37 37 35 34 34 33 32 33 36 34 34 34 33 29 26 23 22 20 18 18 18 20 21 19 17 15 13 13 14 16 18 20 21 21 21
24 28 30 30 30 32 33 35 35 35 34 32 31 32 33 33 34 35 31 31 33 32 29 27 22 19 18 18 19 20 21 21 19 16 15 14 14 15 16 18 19 20 20 20
28 31 30 30 32 34 34 33 33 32 30 29 30 32 33 33 32 31 30 28 30 30 28 25 22 18 18 18 19 19 20 20 19 17 16 15 15 16 17 17 18 20 20 20
28 28 30 31 33 34 33 32 31 29 29 32 34 34 34 34 32 29 29 30 30 29 26 24 22 21 20 19 19 19 20 21 20 19 18 18 18 17 17 17 17 18 19 19
28 29 30 31 31 31 31 29 29 29 31 35 36 34 35 34 32 30 30 30 29 28 26 24 24 24 26 26 24 23 22 21 21 21 21 20 20 19 18 18 18 18 19 20
29 30 30 29 28 29 28 28 29 31 35 37 37 35 35 34 31 31 31 30 29 29 27 25 25 24 25 27 28 27 27 27 24 23 23 23 22 21 20 19 19 19 20 20
28 29 28 29 31 30 31 34 34 35 37 37 39 35 34 33 30 30 29 28 28 28 28 27 26 26 27 26 26 28 26 26 25 24 24 24 23 23 22 22 21 21 21 22

GFSNGP_700_spd_003.txt.gz
Wind_Speed
4 6 7 9 10 10 12 14 15 18 16 15 13 10 12 15 19 21 23 36 39 42 41 43 47 44 37 39 38 37 39 38 43 42 42 47 51 57 33 38 42 40 40 42
2 5 6 12 11 12 15 15 16 15 9 6 13 17 22 22 25 26 34 46 39 36 43 44 41 38 41 45 43 44 45 42 37 41 44 47 51 44 31 29 34 40 38 44
2 5 4 5 3 1 4 8 10 12 12 14 17 23 24 22 28 36 44 41 39 42 43 38 36 40 44 45 46 47 47 42 36 37 40 42 46 27 29 31 33 34 40 38
2 1 1 7 6 10 14 11 12 9 14 22 25 26 25 29 37 41 39 37 39 33 29 31 35 42 45 46 47 47 44 41 36 38 41 44 37 30 27 30 31 34 35 36
3 2 9 7 7 11 10 11 17 23 26 26 20 21 33 39 38 35 33 35 28 27 30 37 44 44 45 47 48 45 44 38 33 36 37 36 32 25 27 28 30 35 35 33
6 4 6 11 3 11 14 16 20 20 21 24 28 36 39 33 35 36 36 35 31 33 36 43 42 45 49 51 47 47 44 40 37 35 34 30 29 29 25 29 32 35 34 28
11 7 8 10 14 14 11 16 20 22 24 30 37 34 33 34 31 33 32 28 30 33 41 42 46 47 52 49 48 47 42 39 36 32 28 23 24 25 27 29 34 33 28 28
8 7 9 6 13 16 22 30 26 29 34 33 32 36 35 28 31 28 24 29 33 39 43 46 46 51 51 48 46 42 39 39 34 29 26 24 24 26 28 32 30 27 26 27
13 10 19 20 20 29 31 31 30 31 33 35 34 30 24 29 23 23 29 34 40 43 45 45 48 50 47 47 45 42 38 35 31 27 25 23 25 26 27 27 26 26 26 27
17 17 15 23 28 29 31 33 33 31 36 31 25 19 26 23 26 32 36 38 40 42 43 44 44 45 44 44 44 39 35 31 28 27 24 20 19 22 24 23 23 24 25 26
31 26 24 29 33 34 33 35 32 34 30 24 18 23 29 30 34 36 37 39 40 41 43 43 44 42 41 43 41 35 31 28 26 23 19 19 22 21 22 23 24 25 24 25
33 33 30 31 30 31 34 35 35 36 26 20 26 31 31 32 34 37 39 40 42 42 42 42 42 42 41 41 38 34 28 26 24 20 20 22 21 21 22 22 23 22 21 22
27 29 31 33 35 33 32 34 33 23 21 27 29 30 30 33 37 38 39 41 41 41 41 40 42 42 40 38 35 32 27 23 21 19 21 22 23 22 22 21 22 20 19 20
29 30 32 32 33 31 31 27 19 23 28 28 28 29 33 36 37 38 41 40 39 39 38 41 41 39 38 35 30 27 25 21 19 21 22 22 23 22 22 22 21 20 20 21
32 31 28 35 27 31 20 20 25 26 26 27 30 33 35 37 39 41 40 38 37 36 37 40 39 38 33 27 25 22 21 20 18 19 21 23 23 21 20 19 19 20 22 21
30 27 34 26 25 20 24 23 25 26 28 32 33 34 36 39 41 40 37 34 35 35 37 39 36 30 26 23 22 18 18 18 19 20 21 22 21 19 18 17 18 19 20 21
25 28 28 25 21 21 21 23 26 29 32 33 34 36 38 40 41 38 33 31 32 34 35 37 31 25 24 21 19 16 17 18 20 21 22 21 19 17 15 15 17 18 19 20
28 25 21 18 18 18 21 25 29 31 32 32 36 39 41 40 38 35 32 31 31 33 34 34 28 24 20 19 18 16 16 18 20 21 21 19 17 15 14 14 16 18 20 20
16 19 15 13 16 21 25 28 30 31 32 35 39 40 38 35 34 34 32 32 32 34 31 31 27 23 21 20 18 16 16 18 21 21 19 17 15 14 12 14 16 18 19 21
15 12 14 18 23 26 28 29 29 31 34 37 37 37 35 33 33 33 33 33 32 32 30 30 28 24 22 20 17 16 17 19 20 21 17 15 14 13 13 14 16 17 18 19
13 17 23 24 26 28 28 29 31 33 33 34 34 32 31 31 33 34 34 32 30 28 28 28 27 24 22 19 16 15 15 17 18 18 17 15 14 13 14 16 16 17 17 18
18 21 25 27 29 28 28 29 30 32 33 32 30 27 28 30 31 32 32 31 29 28 28 27 27 24 21 18 17 16 16 16 17 18 17 16 15 15 16 16 16 16 16 16
23 25 29 28 28 28 29 29 30 32 31 28 27 27 30 32 32 32 32 30 29 28 29 27 26 23 21 20 19 19 19 19 18 18 18 18 18 18 18 17 17 17 16 16
27 27 26 27 29 31 31 30 30 30 28 28 29 30 33 34 34 33 33 31 30 30 29 27 26 24 22 21 21 23 25 24 22 21 20 21 20 20 20 19 19 18 17 16
24 26 28 30 30 30 31 29 30 28 26 30 30 32 33 34 36 33 32 31 30 30 28 27 25 24 24 24 23 23 24 25 26 25 25 24 22 22 22 22 21 20 19 18
26 27 29 30 31 30 29 28 30 31 31 31 33 33 33 34 33 31 31 30 29 28 27 26 26 26 26 26 26 26 26 25 25 26 25 25 23 23 23 23 23 22 21 20
27 29 30 30 29 29 30 32 33 32 31 32 34 32 32 33 32 32 30 29 28 27 25 26 27 28 29 29 29 29 30 29 28 27 25 27 27 23 23 24 24 24 24 23

GFSNGP_700_spd_006.txt.gz
Wind_Speed
8 9 9 11 10 12 12 10 12 13 15 22 20 19 18 19 20 22 23 24 30 39 44 45 46 47 44 41 41 40 40 42 44 44 43 39 38 42 45 44 43 39 29 35
9 9 8 9 10 10 13 17 18 17 15 18 20 21 19 20 23 23 27 31 39 41 43 46 46 43 41 41 41 41 43 44 42 44 44 40 39 41 41 34 36 29 31 35
5 9 8 5 10 6 8 11 13 14 18 19 20 21 20 21 23 27 32 40 41 43 44 43 40 41 41 41 41 43 45 45 43 44 42 38 36 34 30 25 21 26 31 32
4 6 0 7 10 8 11 16 20 21 20 18 19 22 25 29 30 35 41 39 43 41 39 39 40 40 43 43 44 45 46 46 42 42 38 36 34 28 24 24 22 26 28 33
4 8 10 10 15 14 10 14 17 18 19 22 27 29 26 31 36 41 36 40 39 37 38 39 41 43 46 46 46 46 48 46 43 41 37 34 31 27 23 22 22 26 30 36
8 4 6 9 15 15 13 17 10 11 19 21 24 29 33 41 42 36 38 34 34 35 37 40 43 46 47 49 49 50 49 46 43 39 35 32 28 24 23 23 26 30 34 36
16 10 9 16 16 15 11 12 13 20 20 22 26 30 32 34 37 34 32 33 34 34 37 41 46 47 48 50 50 48 47 43 41 36 33 30 26 25 25 25 27 32 33 31
13 10 11 12 18 19 20 23 24 23 26 27 29 31 34 35 31 32 31 31 33 35 38 44 45 47 48 48 48 46 43 40 37 33 31 27 26 25 24 25 26 27 27 29
16 11 15 20 25 23 23 25 27 27 28 31 33 34 33 32 31 30 30 31 33 37 41 42 43 44 46 46 45 43 40 38 35 31 27 25 24 21 21 23 24 23 26 26
25 28 25 25 26 24 27 28 29 30 31 35 36 35 34 29 28 29 30 32 37 39 41 42 43 44 44 43 43 40 37 35 31 29 24 20 19 21 21 22 22 24 25 23
28 28 28 26 26 31 34 30 31 31 34 36 35 28 24 27 28 29 33 37 38 40 42 44 43 41 41 43 39 37 34 30 28 26 22 20 20 21 21 21 23 24 24 22
32 28 32 34 34 31 30 33 35 38 36 33 29 23 26 26 30 33 35 37 39 41 43 41 39 38 41 41 39 38 31 25 25 24 22 21 21 22 23 22 22 23 23 21
27 28 31 29 28 30 33 35 36 33 34 26 22 26 25 29 32 34 36 39 41 42 41 38 37 38 40 40 36 31 25 21 23 22 21 20 21 22 22 21 21 21 20 20
30 31 32 31 30 31 33 36 35 27 22 21 24 26 30 33 34 36 38 41 42 40 36 35 35 36 39 35 31 28 23 21 19 17 18 21 23 23 21 19 17 17 17 19
29 29 29 28 31 32 37 32 22 20 20 23 27 30 33 34 35 37 39 42 40 37 33 33 34 35 36 31 29 25 21 18 16 16 17 19 22 21 19 18 17 16 16 18
30 30 30 31 33 37 22 15 18 21 22 26 30 33 34 35 37 39 40 40 39 36 32 33 34 34 33 28 24 22 21 17 16 17 19 20 20 18 18 16 15 15 17 18
30 30 32 36 36 13 12 18 21 20 26 31 33 34 34 36 38 40 38 37 35 34 32 33 33 32 31 27 23 21 20 18 17 18 20 21 19 17 16 15 13 15 16 18
26 25 28 19 13 11 16 16 22 26 30 33 33 33 35 37 39 38 36 34 32 32 32 32 31 29 29 27 24 21 21 18 18 18 20 21 19 16 15 14 13 14 16 17
28 24 14 13 10 8 15 20 26 31 31 31 32 34 35 36 36 35 33 32 32 32 31 31 29 28 28 27 25 21 19 18 18 18 20 20 17 16 14 13 14 15 16 16
7 8 8 6 12 20 25 29 32 29 29 31 32 32 34 33 33 32 31 32 33 34 32 30 29 28 27 26 24 21 18 17 17 17 19 19 17 16 15 14 14 15 16 16
7 9 13 16 21 26 29 29 27 28 29 30 31 32 32 30 30 30 31 32 31 32 31 29 28 28 27 26 23 19 16 17 17 17 17 18 17 17 16 16 16 16 16 16
9 12 17 24 27 28 27 26 27 28 29 30 31 32 32 30 29 31 31 32 32 30 30 28 28 27 26 25 22 19 17 18 18 19 19 19 19 18 18 19 18 18 17 17
16 20 25 28 28 26 25 27 28 29 31 30 31 30 30 32 33 34 34 32 33 30 29 28 28 27 26 24 22 21 20 21 22 23 23 22 21 21 21 21 21 21 20 19
24 27 27 26 26 27 29 28 30 30 30 31 31 32 34 34 33 32 33 34 33 31 31 29 28 26 25 24 23 22 23 23 23 24 24 24 25 25 26 24 23 23 23 22
24 24 25 27 28 29 30 32 32 32 32 31 32 33 33 34 36 34 32 32 33 32 30 28 27 25 24 24 25 26 26 24 25 26 26 26 27 27 27 26 24 24 24 24
24 25 26 28 30 31 32 33 34 34 35 35 34 32 33 36 37 35 33 33 34 31 28 26 24 24 25 26 28 29 30 30 29 30 31 30 29 28 27 28 28 24 24 24
25 27 29 30 29 32 35 36 37 36 34 35 36 36 37 37 35 34 33 33 31 27 26 24 24 25 27 30 32 32 32 32 31 30 31 32 31 30 28 27 30 29 26 26

GFSNGP_700_spd_009.txt.gz
Wind_Speed
9 8 8 10 13 15 17 16 15 17 18 18 22 26 27 28 24 23 23 24 26 29 35 38 39 39 38 40 42 42 42 43 45 48 49 49 46 44 39 38 35 30 28 23
11 11 12 13 14 16 18 19 21 22 24 22 23 24 26 25 24 24 25 29 35 38 42 38 39 38 40 41 41 42 43 45 47 49 48 47 46 42 39 34 29 22 23 25
6 11 11 13 18 16 14 17 17 21 19 19 18 20 25 25 26 28 31 35 36 39 40 40 38 40 41 41 42 44 46 48 49 49 48 47 43 38 35 31 26 21 27 25
5 6 1 12 12 16 17 17 17 20 22 22 19 17 22 25 28 30 33 37 40 41 42 37 39 40 40 42 46 48 50 51 50 49 46 43 39 36 32 29 22 22 24 25
5 10 11 12 16 19 19 19 17 18 18 16 17 20 23 24 29 33 37 37 37 37 33 36 38 39 42 46 49 50 51 50 49 46 44 40 36 32 30 27 26 26 25 28
11 5 6 10 11 15 20 25 19 14 11 19 19 24 21 27 32 34 35 37 32 30 33 36 38 41 45 49 50 50 49 48 46 44 41 37 34 30 28 26 25 26 27 30
20 13 11 17 17 17 15 17 10 16 20 22 23 23 27 30 34 35 34 30 29 31 35 37 40 44 46 47 48 48 47 45 44 40 38 35 32 29 27 24 23 24 25 28
17 14 14 19 20 20 18 16 23 24 24 26 24 27 29 33 36 33 29 25 30 33 35 37 42 44 45 47 47 45 43 43 40 37 35 33 31 26 22 21 23 25 26 27
18 16 18 16 12 23 24 26 28 26 28 29 28 30 31 34 32 25 23 27 32 33 35 39 42 43 46 46 44 42 43 40 38 36 32 30 27 23 22 23 23 24 25 26
27 28 27 27 30 30 31 31 26 30 31 28 30 31 35 30 23 24 25 30 32 35 39 40 42 44 45 43 40 41 42 39 36 31 27 25 23 22 22 23 24 25 24 25
29 27 30 32 31 29 28 29 35 33 29 31 31 33 28 21 20 24 28 32 35 38 40 42 44 44 41 39 38 40 39 35 31 24 24 26 23 21 21 23 25 24 23 23
31 25 27 29 28 30 34 34 31 31 31 31 35 26 19 18 23 26 31 35 38 38 40 43 44 41 37 36 37 39 36 33 27 20 24 28 23 21 21 24 24 22 22 22
28 26 30 32 32 31 30 30 31 32 31 34 25 20 19 20 26 30 35 38 38 39 42 43 41 37 35 35 36 37 33 30 25 20 22 21 22 22 23 22 22 21 20 20
29 29 31 28 30 30 31 31 31 31 34 19 20 21 17 25 30 35 37 37 38 41 41 40 38 35 35 34 34 34 31 27 24 20 18 19 21 22 23 22 19 17 17 18
30 31 32 30 31 32 32 34 34 38 24 18 19 18 26 31 35 35 35 37 40 40 39 37 36 34 34 34 32 32 30 26 24 21 19 19 21 22 22 20 18 16 15 17
33 34 33 31 32 31 33 38 40 23 17 19 14 23 30 35 34 34 36 38 39 38 36 35 34 34 33 32 30 30 29 26 24 22 20 21 22 22 21 19 16 15 14 15
31 31 31 32 32 32 37 36 19 19 13 16 23 31 34 33 33 35 36 37 37 35 33 33 34 33 32 30 29 29 29 27 25 23 21 21 23 23 20 18 16 15 14 15
27 28 29 27 31 25 16 19 11 12 18 25 31 32 31 32 35 35 37 36 34 32 33 34 34 33 31 29 28 29 29 28 26 23 21 21 21 22 20 17 16 15 15 15
26 25 28 28 21 13 7 8 14 20 26 30 30 30 32 33 34 36 36 34 32 33 33 34 33 31 30 28 28 28 28 27 24 21 21 20 21 21 20 17 16 16 16 16
15 15 16 12 5 12 16 18 23 28 30 30 30 32 32 33 35 35 34 32 31 34 35 35 33 31 29 29 29 28 26 24 22 20 20 20 21 21 21 19 17 17 17 18
3 5 8 13 16 17 21 27 31 31 30 30 31 32 33 33 33 33 33 33 32 34 35 36 33 31 30 29 28 27 24 22 21 21 22 22 21 22 22 21 20 20 20 20
13 12 14 16 19 25 29 31 30 28 29 31 31 33 33 33 32 33 34 34 33 34 34 34 32 31 30 29 28 26 24 22 22 23 25 25 26 26 25 24 22 22 22 23
12 15 17 21 27 29 27 27 29 30 31 32 33 33 34 35 35 37 36 34 34 34 34 34 34 33 31 29 27 25 24 23 23 25 26 27 27 27 27 26 26 26 26 24
16 21 25 26 26 26 28 29 31 32 33 34 35 35 36 37 38 35 35 35 36 36 35 35 36 34 30 28 26 24 24 25 26 27 29 29 30 30 31 32 32 32 30 28
22 23 25 26 28 30 32 33 33 34 35 37 37 37 37 36 37 38 39 39 37 36 36 35 35 31 28 26 26 26 27 28 30 31 32 32 32 33 33 32 31 31 30 29
24 25 27 29 30 32 34 36 38 40 42 43 42 39 39 39 41 43 43 40 37 35 34 33 30 28 27 26 27 28 30 30 30 30 31 31 31 32 34 34 31 33 31 29
24 27 29 31 32 35 38 41 44 45 45 44 44 42 42 42 38 36 36 36 36 35 33 31 30 28 27 28 29 31 30 30 30 31 32 32 32 31 31 31 33 31 32 32

GFSNGP_700_spd_012.txt.gz
Wind_Speed
11 9 10 11 12 14 16 16 16 19 21 16 19 18 20 23 26 29 28 27 27 28 32 38 39 35 33 33 37 40 42 44 46 48 49 50 50 47 45 42 38 34 29 28
14 13 13 14 16 18 20 21 23 23 25 20 19 19 22 24 26 29 28 27 28 33 36 40 36 36 33 36 39 41 43 46 48 50 51 51 48 46 44 39 35 31 27 22
8 14 15 15 20 21 23 23 22 23 19 17 17 18 19 20 23 26 27 28 31 36 38 35 36 34 34 37 40 42 45 47 50 52 51 49 46 44 40 36 31 28 22 23
6 7 1 17 17 17 18 18 22 23 20 19 20 19 17 19 21 24 26 29 33 36 34 36 32 33 36 38 40 44 47 49 51 51 49 47 44 40 35 32 29 26 24 24
6 12 16 14 16 17 20 21 23 23 20 19 20 18 19 20 19 24 27 31 36 36 36 32 32 35 37 38 42 46 48 49 50 48 47 45 40 36 33 30 27 25 25 25
11 6 6 10 12 12 18 29 27 22 19 16 18 24 21 17 21 25 29 34 36 34 30 30 33 35 37 41 45 46 49 49 46 46 46 42 38 34 31 29 26 24 23 24
21 16 14 18 20 19 14 22 14 11 14 22 26 24 25 23 24 27 31 32 32 28 28 32 34 37 40 44 45 47 48 45 43 44 45 41 37 31 28 25 23 23 25 25
13 11 12 17 20 19 18 17 19 22 25 30 27 28 31 25 25 32 31 32 26 26 29 33 36 40 43 44 46 47 45 42 42 43 40 37 32 27 25 23 23 24 25 26
14 14 19 24 25 23 22 24 29 30 31 29 28 33 27 27 32 36 31 25 24 25 30 35 38 42 43 45 46 44 41 40 41 40 36 33 26 24 24 24 23 24 26 26
27 26 25 24 27 28 29 32 31 31 30 31 34 31 30 30 32 33 25 23 23 29 32 37 41 41 44 45 44 42 39 38 39 36 34 29 23 25 26 23 23 24 26 25
30 29 28 26 26 27 29 30 29 29 31 36 34 31 31 31 36 28 19 20 25 31 36 40 39 41 43 44 43 39 36 36 36 34 31 26 23 24 26 23 24 25 25 23
28 21 23 25 25 28 30 30 30 32 33 32 30 30 33 32 22 21 16 22 30 36 39 38 39 40 41 42 39 36 34 34 34 31 29 26 23 24 25 24 24 25 23 21
27 26 28 29 28 27 29 29 30 30 29 29 31 31 36 25 18 15 18 27 35 37 36 38 39 39 40 37 35 34 33 32 31 29 28 25 23 23 24 24 24 24 22 20
27 29 31 29 31 31 31 30 29 27 26 31 32 45 36 12 17 21 26 32 34 34 36 37 38 37 35 34 35 34 32 30 29 27 26 24 23 22 23 24 24 22 20 18
32 33 35 35 35 35 34 32 30 28 31 37 33 16 17 15 20 26 30 31 31 33 35 36 36 33 33 35 34 33 30 29 29 27 26 24 23 22 23 24 23 21 18 16
34 33 33 33 33 32 30 30 29 28 36 30 17 9 16 22 25 27 29 30 31 33 34 36 34 32 33 33 33 31 30 29 29 28 26 25 23 23 23 24 22 19 17 15
30 29 29 31 30 28 29 29 32 28 26 12 12 19 23 26 27 28 30 30 32 34 36 35 33 33 35 35 33 31 29 28 28 28 27 24 22 21 23 22 21 19 17 16
27 28 27 25 25 24 29 29 21 18 10 15 21 23 23 24 26 28 30 31 33 36 34 34 34 35 35 35 33 30 29 29 28 28 26 23 22 21 22 21 20 19 18 17
24 23 23 21 22 22 21 11 9 17 23 23 23 23 24 26 29 30 33 34 34 35 34 34 35 35 34 34 32 30 30 28 27 26 24 22 20 21 22 21 20 20 20 19
18 17 14 14 5 7 14 20 22 23 25 25 25 25 28 30 32 34 35 36 32 35 35 34 35 36 36 34 32 30 30 28 27 26 24 22 22 22 24 24 24 22 21 21
7 9 12 16 18 20 21 22 25 27 27 26 27 29 30 32 33 35 35 35 31 36 35 34 35 35 35 34 33 32 30 28 26 25 25 24 24 25 26 27 28 27 25 23
9 13 16 17 16 18 21 25 25 25 27 29 30 32 33 33 34 35 36 37 37 36 35 34 36 35 34 34 33 31 29 27 25 25 24 25 26 28 29 30 30 29 27 26
16 16 17 20 23 25 26 27 28 29 30 31 32 34 35 37 39 39 40 38 38 38 38 38 37 37 36 35 33 30 27 25 25 25 25 26 28 29 31 33 34 34 34 33
16 19 21 21 22 23 24 26 28 30 33 34 37 39 41 42 43 40 40 40 41 42 43 42 39 36 35 33 32 29 27 25 26 27 28 28 29 30 31 32 33 35 34 33
16 18 19 22 25 27 29 31 33 35 37 39 41 42 43 43 44 42 41 40 40 37 36 35 34 34 33 32 30 28 27 27 28 29 28 28 28 29 31 31 31 32 33 36
20 22 24 27 29 32 34 37 39 41 41 43 44 44 43 42 40 39 39 39 37 36 33 33 33 33 31 29 29 29 28 28 28 28 28 28 29 31 32 33 34 33 32 31
23 25 27 29 32 35 38 39 41 43 45 45 46 45 44 42 41 39 38 35 36 34 31 31 31 31 31 30 29 29 29 28 27 28 28 29 31 33 35 37 36 36 33 31

GFSNGP_700_spd_018.txt.gz
Wind_Speed
19 16 14 13 12 18 22 19 14 14 15 12 13 16 16 17 16 21 26 29 32 34 35 34 34 36 40 32 32 34 37 33 34 36 38 40 43 46 46 44 43 42 39 35
18 19 18 18 17 18 19 21 24 23 24 19 18 17 19 19 17 18 22 25 27 30 32 33 33 37 33 33 35 37 33 32 33 36 38 41 44 46 45 43 42 40 36 28
7 15 17 16 24 25 25 25 25 22 20 23 20 19 19 19 18 18 19 21 24 27 30 31 34 34 36 32 36 32 30 31 34 37 39 42 45 45 43 42 40 37 32 22
6 4 3 12 17 16 18 18 19 18 21 23 22 20 21 19 16 14 16 20 23 27 29 31 34 37 30 32 30 27 29 32 35 37 40 43 44 43 41 39 36 35 29 26
5 8 15 17 15 15 18 17 15 19 19 22 21 20 20 15 16 20 21 20 23 27 31 32 36 40 37 28 25 26 29 34 36 38 42 43 42 40 36 35 34 30 25 24
7 4 4 7 10 14 15 13 8 7 11 14 12 14 12 19 25 26 23 21 23 25 29 33 37 44 34 26 23 26 32 35 37 40 42 42 39 35 33 33 30 25 24 23
15 10 7 12 14 14 5 5 12 21 17 16 19 18 22 26 26 24 24 24 24 27 31 35 38 35 23 19 24 28 32 35 38 40 41 38 34 32 31 29 27 24 23 22
7 6 6 3 6 8 13 22 23 19 16 20 23 26 24 26 27 27 27 28 28 33 36 37 42 29 17 22 25 29 33 35 37 39 37 34 32 30 28 26 24 22 22 22
7 7 13 19 17 17 21 24 24 24 23 26 28 30 30 29 30 31 33 34 33 35 43 39 23 15 18 23 25 30 33 35 37 36 33 31 30 28 27 25 23 22 22 22
18 17 17 21 21 21 21 22 21 23 24 27 29 30 31 31 29 32 35 35 40 42 38 25 15 15 19 23 27 30 32 35 34 32 31 30 28 26 26 24 23 22 21 21
21 19 18 18 20 21 22 25 26 27 28 28 29 29 31 32 33 34 33 37 41 34 22 12 14 15 17 23 27 29 32 32 31 31 31 28 25 25 24 23 22 21 20 22
15 16 21 21 22 24 24 25 26 28 29 29 29 30 31 31 30 31 35 39 33 19 11 10 12 16 21 24 27 30 31 30 30 30 28 26 25 25 24 23 23 21 20 21
22 21 22 22 23 24 26 28 30 32 32 33 33 31 29 29 33 32 37 27 19 10 10 12 17 20 22 26 29 30 29 29 30 29 28 26 24 25 25 26 23 21 21 22
24 22 23 24 26 28 31 31 31 30 29 29 31 28 32 34 32 31 23 11 9 13 16 18 20 23 25 28 28 29 29 29 29 29 28 26 25 26 26 26 24 22 20 20
26 27 27 31 31 28 28 28 27 28 29 27 24 26 30 23 16 13 21 20 20 18 19 21 23 25 26 27 28 29 30 29 30 30 29 27 27 27 26 26 24 21 19 19
29 29 26 24 25 25 27 30 27 24 25 23 20 17 17 14 13 17 21 19 15 17 21 24 24 26 26 28 30 31 31 30 30 30 29 28 27 27 26 25 24 21 19 18
22 21 22 24 25 27 22 20 19 17 14 11 10 10 15 17 18 16 15 17 18 21 24 26 26 27 29 30 33 34 32 31 31 31 30 30 29 28 26 25 23 22 20 19
19 20 21 19 16 14 12 12 10 9 10 11 14 15 15 15 15 17 19 21 22 24 25 29 30 31 32 34 35 35 34 34 34 33 32 31 30 29 27 25 23 21 21 21
12 11 11 9 7 6 5 6 7 10 11 11 12 13 15 17 19 21 23 24 26 29 30 32 34 35 36 37 37 37 36 37 37 36 34 33 32 29 27 25 24 23 22 23
9 8 7 7 9 10 10 10 11 11 12 13 15 17 19 22 24 26 28 29 29 33 35 36 37 38 38 38 38 39 39 40 41 39 36 33 31 28 25 24 23 23 23 25
7 7 7 7 8 9 10 11 12 13 16 18 20 22 24 25 29 32 34 36 35 38 39 39 39 39 39 39 39 40 39 37 35 33 31 29 28 26 24 22 22 22 23 25
9 9 10 11 12 12 12 14 15 18 20 23 26 29 31 33 35 36 37 40 41 41 41 41 40 41 40 38 39 36 36 35 33 31 28 28 27 25 24 24 24 25 25 24
10 11 12 13 13 14 16 18 21 23 26 28 31 34 37 39 42 44 46 45 45 44 43 41 39 39 41 38 35 35 35 32 31 29 28 28 29 28 27 26 25 25 25 24
12 12 13 15 16 17 19 21 24 27 30 34 36 39 42 45 46 46 46 46 46 45 44 42 40 38 37 34 32 33 33 32 32 29 28 28 28 30 29 27 25 26 25 25
14 15 16 17 19 21 23 26 30 34 37 39 41 45 47 47 49 51 53 52 50 48 45 41 39 37 34 33 32 33 32 34 35 31 30 29 29 29 30 30 26 25 26 26
17 17 18 19 21 24 28 32 36 39 43 46 49 50 51 52 52 51 48 46 45 42 39 36 35 31 32 32 30 30 31 32 32 31 30 30 29 29 30 30 27 26 26 26
18 20 21 23 26 30 34 39 42 45 48 50 51 51 50 49 47 44 42 40 39 37 35 32 31 30 32 32 31 31 31 31 30 31 33 32 31 30 29 29 26 23 24 27

GFSNGP_700_spd_021.txt.gz
Wind_Speed
18 13 12 11 12 14 20 22 20 19 15 13 14 15 14 15 15 16 23 28 32 35 36 38 41 43 42 42 41 40 42 33 32 33 34 35 37 38 41 43 44 44 42 38
16 14 16 15 16 17 18 20 21 23 23 19 18 16 16 14 19 18 21 25 28 31 34 36 40 41 40 39 41 41 40 35 32 30 31 35 37 38 42 43 44 43 40 36
8 9 9 14 21 22 21 20 20 22 22 17 15 15 14 14 18 19 20 23 25 27 30 34 38 39 38 39 43 42 41 34 28 29 32 35 36 39 41 42 42 39 37 35
5 4 1 9 12 13 14 16 19 21 19 18 19 17 19 20 18 20 18 18 21 25 30 34 37 40 38 42 43 47 43 38 25 29 32 34 37 39 40 40 38 36 35 34
5 9 11 14 13 13 10 9 8 8 10 12 15 17 19 18 17 16 19 23 25 24 28 32 35 38 42 44 49 45 41 25 26 30 33 37 38 40 39 35 35 34 31 30
7 4 4 3 8 9 9 8 2 7 7 10 19 15 15 15 19 24 27 25 23 23 24 28 33 37 43 45 51 38 29 23 26 28 32 37 39 38 34 33 33 32 31 27
12 8 7 9 13 12 6 4 10 14 23 24 15 12 18 21 26 29 28 28 27 27 31 31 38 40 46 51 44 29 20 24 24 29 33 37 36 33 34 32 30 29 29 26
8 6 7 9 4 2 7 16 23 24 23 24 21 24 28 30 29 30 29 30 32 32 35 41 42 45 49 43 30 19 23 22 26 32 35 36 34 32 32 30 29 29 29 25
7 3 10 11 17 15 22 24 24 24 22 21 23 25 25 29 31 29 30 34 36 40 43 45 43 44 39 24 17 18 18 23 29 33 35 33 31 31 30 28 28 29 27 25
13 6 9 12 22 20 18 19 20 22 24 25 27 28 29 29 33 31 35 37 38 40 42 44 43 37 31 16 14 17 22 26 30 34 33 31 30 29 28 27 27 27 25 24
14 17 13 10 9 17 22 23 25 25 25 28 27 28 30 32 35 35 38 36 38 39 43 40 33 24 15 13 16 19 24 29 31 31 31 31 30 29 28 26 26 26 26 24
10 13 19 17 24 27 26 26 25 26 27 32 30 30 32 34 34 33 33 36 35 38 40 27 18 17 21 19 18 23 27 30 31 32 31 30 31 31 28 26 26 25 24 24
18 21 23 24 28 26 26 26 28 32 32 32 30 28 28 30 30 31 34 36 30 21 15 14 20 21 16 18 22 27 29 30 31 31 31 31 32 31 30 28 27 26 23 23
24 23 24 21 25 25 28 31 30 28 27 27 28 28 25 23 24 24 21 13 13 21 24 22 17 17 21 24 27 29 30 31 32 32 31 31 31 31 31 30 29 27 26 25
26 25 24 25 27 26 24 25 25 26 28 26 23 21 20 18 18 16 17 18 18 16 16 17 19 22 26 27 30 32 32 33 32 32 33 33 32 31 30 30 29 28 26 26
28 28 28 25 23 22 23 25 24 21 19 18 16 14 13 11 11 13 13 13 15 17 20 23 23 26 28 30 33 34 36 37 37 35 34 33 33 33 32 31 30 29 27 25
26 22 21 21 21 21 18 15 14 14 13 12 13 12 12 13 14 15 17 19 20 21 24 27 29 30 32 33 35 37 38 39 38 38 37 37 36 34 33 33 32 30 28 26
19 19 17 16 14 13 13 12 11 11 11 11 12 13 14 15 17 19 21 23 24 26 28 31 33 35 36 37 38 39 40 40 40 40 40 39 39 37 34 34 32 30 28 26
12 10 9 10 10 10 10 10 11 13 14 14 14 14 17 19 22 24 26 27 29 32 35 37 38 38 39 40 41 41 42 42 41 42 41 39 36 34 34 33 31 28 26 25
8 8 8 9 10 11 13 13 13 14 14 15 17 19 21 24 26 28 31 33 34 37 39 41 43 44 45 44 43 42 41 41 39 40 38 37 34 30 28 30 30 27 25 24
8 9 10 12 13 14 14 15 16 16 17 19 21 23 25 28 31 34 36 39 41 43 46 48 48 47 46 43 37 35 40 41 43 38 38 37 32 27 28 29 29 28 26 24
11 12 14 15 15 16 16 16 17 18 20 22 24 27 30 33 36 38 41 45 48 49 50 50 50 49 46 42 41 37 40 41 44 38 41 36 32 30 31 33 34 31 29 29
14 15 15 15 16 16 17 18 20 21 23 26 29 32 36 39 42 46 49 51 52 53 53 51 49 47 44 42 40 39 36 33 31 36 36 35 33 32 31 31 31 31 33 33
16 16 15 16 17 18 19 21 22 24 27 31 36 39 41 45 48 49 50 50 50 49 47 47 44 42 39 35 31 31 30 31 33 34 35 36 33 32 32 31 30 30 30 31
15 16 18 18 19 20 21 23 25 29 33 38 41 44 46 48 49 50 49 47 46 44 43 42 41 39 36 33 33 32 33 34 34 33 33 32 30 29 30 31 31 30 29 30
18 19 20 21 22 23 25 27 31 35 40 43 45 48 49 49 48 46 44 42 41 42 42 42 41 39 36 33 31 31 33 35 33 31 31 30 30 30 31 33 32 31 29 29
19 21 23 24 24 26 29 33 36 41 44 46 48 49 48 46 43 41 40 40 41 41 41 40 38 35 33 32 30 28 27 26 26 26 27 28 28 28 30 32 33 31 28 27

GFSNGP_700_spd_024.txt.gz
Wind_Speed
17 18 9 12 10 10 16 18 20 20 17 15 13 10 9 10 11 15 14 21 23 29 35 37 43 42 38 39 41 42 37 39 41 43 46 38 37 34 35 34 37 40 41 41
17 14 16 16 17 16 18 17 19 20 20 16 15 18 19 13 12 17 16 17 24 29 33 39 43 40 37 40 43 41 38 39 41 44 29 37 34 29 30 34 38 39 40 39
8 8 10 14 19 19 20 18 18 20 19 16 16 17 11 14 12 16 20 19 19 28 28 30 32 35 38 41 41 38 40 41 44 34 40 30 28 29 29 33 37 37 37 36
5 5 1 9 7 9 10 11 12 14 13 9 13 12 15 21 15 14 15 20 18 19 22 26 29 34 37 38 41 37 40 44 45 43 32 23 27 28 30 34 37 35 35 33
5 8 11 15 8 8 5 5 4 3 7 5 12 13 13 11 13 15 19 19 22 27 23 23 26 29 34 37 37 42 46 50 41 33 22 24 22 24 31 35 34 33 33 30
7 3 4 3 9 8 6 4 3 11 9 9 14 17 13 17 17 19 18 26 20 21 22 22 26 32 36 40 46 49 55 49 42 23 23 21 26 29 32 34 34 32 31 29
12 7 7 9 12 13 5 4 9 9 16 24 18 12 19 22 23 25 27 26 24 22 26 33 36 39 42 43 49 55 52 39 29 27 20 23 28 32 35 34 32 31 30 28
12 7 7 10 6 4 9 9 15 24 23 25 23 21 21 22 18 29 25 22 30 35 37 40 41 42 45 49 49 43 43 29 23 21 23 26 30 34 32 31 30 30 30 29
8 1 8 7 11 13 16 20 23 22 19 19 20 20 20 22 23 30 29 33 36 37 38 39 40 42 44 44 47 32 20 19 21 21 22 28 32 33 31 29 29 29 28 29
14 9 5 8 14 13 9 15 17 20 22 22 24 24 22 21 25 32 36 34 32 32 34 36 40 45 38 26 20 17 20 20 16 22 28 31 31 31 30 29 29 28 28 28
10 12 12 9 13 16 20 23 24 24 24 26 25 24 28 32 34 33 33 31 30 31 32 35 33 25 18 18 20 22 17 19 24 28 30 31 32 32 31 30 29 29 27 28
12 14 18 21 26 25 27 28 28 25 26 25 29 30 28 27 26 27 26 25 27 28 28 22 18 17 20 19 15 17 22 25 28 30 31 33 33 33 32 31 31 28 27 27
20 22 23 25 26 28 28 27 26 27 30 31 27 26 26 26 26 26 24 22 21 18 15 16 18 17 18 18 21 24 26 29 31 32 33 34 33 34 34 33 31 31 29 28
20 21 27 27 29 27 25 27 30 29 26 26 27 28 26 22 19 17 18 19 18 19 19 17 16 18 22 24 25 28 30 32 34 34 35 37 37 37 36 35 34 32 30 29
25 25 28 27 26 26 28 27 25 25 25 24 21 19 17 16 15 16 14 14 14 16 19 21 22 23 27 29 31 32 34 36 38 38 38 38 38 37 36 34 33 32 30 28
27 28 28 26 27 26 23 23 23 22 18 17 15 14 13 14 14 15 17 16 18 20 23 25 26 29 31 33 34 36 38 40 41 42 42 42 42 41 40 39 35 33 32 29
29 27 26 25 22 22 22 18 15 15 14 13 12 13 14 15 16 17 19 20 22 24 26 29 31 33 35 37 38 41 42 43 44 44 44 42 42 40 39 38 35 33 32 30
25 23 21 20 20 15 12 12 12 12 12 13 15 16 17 17 17 19 21 23 25 27 31 34 36 38 39 41 42 44 45 46 46 45 43 41 38 37 36 35 34 32 29 27
20 17 15 11 11 12 11 11 12 13 14 14 15 16 18 19 21 23 26 28 30 34 36 38 41 44 47 48 48 48 48 46 44 40 38 37 35 37 36 34 30 25 26 27
13 11 10 11 11 11 11 12 13 14 16 17 17 18 20 23 25 27 30 34 37 40 42 45 47 49 50 51 51 49 48 47 43 34 39 37 34 34 37 35 29 28 28 27
10 10 10 9 10 11 13 15 17 18 18 19 20 22 24 27 30 33 36 39 42 45 48 50 51 50 48 48 47 45 42 41 39 35 38 40 35 44 38 33 28 28 31 33
10 10 10 12 13 15 17 18 19 20 21 23 25 26 28 31 34 37 41 44 47 49 50 51 51 47 46 44 42 41 38 34 32 30 31 31 36 37 31 32 32 30 30 30
11 12 13 15 17 18 18 19 21 22 24 26 27 29 32 36 40 43 46 48 50 49 49 48 46 43 42 42 41 40 37 35 32 29 28 29 32 36 36 34 31 29 29 29
14 15 16 17 18 19 20 20 23 24 25 28 31 34 38 41 44 46 47 48 48 46 44 42 41 41 42 42 41 39 36 35 32 34 35 35 36 35 34 31 30 27 26 26
15 16 17 18 20 20 21 22 25 27 29 32 35 39 43 45 47 48 48 47 45 42 41 40 41 40 40 40 39 37 35 33 31 30 31 34 34 33 31 30 29 28 27 27
17 19 18 20 20 22 23 26 27 30 33 36 39 44 47 48 48 47 45 43 41 39 39 39 40 40 38 37 35 34 33 32 30 28 27 27 26 26 26 26 27 27 26 26
20 21 22 22 23 25 27 29 30 33 37 41 44 47 49 48 46 44 41 39 38 38 38 37 37 37 36 34 33 33 32 31 30 29 28 28 27 27 26 26 26 27 27 27